Weather History for Tekamah, NE

Change the Weather History Date:

Friday, October 15, 2010

  Actual Average Record
Temperature  
Mean Temperature 54 °F -  
Max Temperature 73 °F 66 °F 88 °F (1958)
Min Temperature 34 °F 40 °F 27 °F (1952)
Degree Days  
Heating Degree Days 12    
Growing Degree Days 4 (Base 50)    
Moisture  
Dew Point 36 °F    
Average Humidity 59    
Maximum Humidity 93    
Minimum Humidity 26    
Precipitation  
Precipitation 0.00 in - - ()
Sea Level Pressure  
Sea Level Pressure 30.07 in    
Wind  
Wind Speed 6 mph (South)    
Max Wind Speed 16 mph    
Max Gust Speed 21 mph    
Visibility 10 miles    
Events      
Averages and records for this station are not official NWS values.
T = Trace of Precipitation, MM = Missing Value Source: NWS Daily Summary

Daily Weather History Graph

Daily Weather History Graph

Search for Another Location

Airport:

Trip Planner

Search our weather history database for the weather conditions in past years. The results will help you decide how hot, cold, wet, or windy it might be!

Date:

Astronomy

Oct. 15, 2010 Rise Set
Actual Time 7:36 AM CDT 6:43 PM CDT
Civil Twilight 7:08 AM CDT 7:11 PM CDT
Nautical Twilight 6:36 AM CDT 7:43 PM CDT
Astronomical Twilight 6:04 AM CDT 8:15 PM CDT
Moon 3:11 PM CDT (10/15) 12:25 AM CDT (10/15)
Length of Visible Light 12h 02m
Length of Day
11h 06m
First Quarter, 58% of the Moon is Illuminated
Oct 15
First Quarter
Oct 22
Full
Oct 30
Last Quarter
Nov 5
New
Nov 13
First Quarter

Hourly Weather History & Observations

Time (CDT) Temp. Windchill Dew Point Humidity Pressure Visibility Wind Dir Wind Speed Gust Speed Precip Events Conditions
12:54 AM 43.0 °F 38.8 °F 34.0 °F 71% 30.07 in 10.0 mi NNW 6.9 mph - N/A   Clear
1:54 AM 39.9 °F 35.8 °F 34.0 °F 79% 30.08 in 10.0 mi West 5.8 mph - N/A   Clear
2:54 AM 39.9 °F 37.8 °F 34.0 °F 79% 30.09 in 10.0 mi West 3.5 mph - N/A   Clear
3:54 AM 39.0 °F 36.8 °F 33.1 °F 79% 30.09 in 10.0 mi NNW 3.5 mph - N/A   Clear
4:54 AM 36.0 °F - 32.0 °F 86% 30.11 in 10.0 mi Calm Calm - N/A   Clear
5:54 AM 36.0 °F - 32.0 °F 86% 30.12 in 10.0 mi Calm Calm - N/A   Clear
6:54 AM 36.0 °F - 34.0 °F 93% 30.14 in 10.0 mi Calm Calm - N/A   Clear
7:54 AM 34.0 °F 31.0 °F 32.0 °F 92% 30.16 in 9.0 mi West 3.5 mph - N/A   Clear
8:54 AM 42.1 °F - 37.9 °F 85% 30.18 in 10.0 mi Calm Calm - N/A   Clear
9:54 AM 52.0 °F - 37.9 °F 59% 30.17 in 10.0 mi Calm Calm - N/A   Clear
10:54 AM 59.0 °F - 37.0 °F 44% 30.16 in 10.0 mi SE 5.8 mph - N/A   Clear
11:54 AM 64.0 °F - 36.0 °F 35% 30.15 in 10.0 mi South 9.2 mph - N/A   Clear
12:54 PM 68.0 °F - 35.1 °F 30% 30.12 in 10.0 mi South 8.1 mph - N/A   Clear
1:54 PM 70.0 °F - 36.0 °F 29% 30.09 in 10.0 mi South 10.4 mph - N/A   Clear
2:54 PM 72.0 °F - 36.0 °F 27% 30.05 in 10.0 mi SSE 10.4 mph - N/A   Clear
3:54 PM 73.0 °F - 36.0 °F 26% 30.03 in 10.0 mi South 15.0 mph - N/A   Clear
4:54 PM 73.0 °F - 36.0 °F 26% 30.01 in 10.0 mi SSE 16.1 mph 20.7 mph N/A   Clear
5:54 PM 70.0 °F - 37.0 °F 30% 29.99 in 10.0 mi SE 11.5 mph - N/A   Clear
6:54 PM 62.1 °F - 37.9 °F 41% 29.99 in 10.0 mi SE 10.4 mph - N/A   Clear
7:54 PM 55.9 °F - 37.9 °F 51% 29.98 in 10.0 mi SSE 9.2 mph - N/A   Clear
8:54 PM 51.1 °F - 37.9 °F 61% 29.98 in 10.0 mi SSE 3.5 mph - N/A   Clear
9:54 PM 48.9 °F - 37.0 °F 64% 29.98 in 10.0 mi South 6.9 mph - N/A   Clear
10:54 PM 48.9 °F - 37.9 °F 66% 29.96 in 10.0 mi South 9.2 mph - N/A   Clear
11:54 PM 50.0 °F - 39.0 °F 66% 29.95 in 10.0 mi South 9.2 mph - N/A   Clear